カタログに戻る

EUTE 70B

運用中通信GEO
NORAD 39020·PAYLOAD·🇪🇺 EU

打ち上げ Dec 3, 2012 から Sea Launch Platform

Loading…

TLE

最新Source: Space-Track

元期: Sep 14, 2026, 14:08 UTC

1 39020U 12069A   26257.58914108 -.00000052  00000-0  00000-0 0  9998
2 39020   0.0663 343.5471 0003839 192.4767 100.1402  1.00272528 50401

AllMySatでEUTE 70Bをリアルタイム追跡

Download on the App Store